#timestamp,LO_Frequency,Hit,StdDev 
1554454815.2,286046998.6,N
1554454835.1,286046999.3,N
1554454836.0,286046999.3,N
1554454855.8,286046996.8,N
1554454875.7,286046997.1,N
1554454895.5,286046998.6,N
1554454915.3,286047000.5,N
1554454935.2,286047001.1,N
1554454955.0,286047000.7,N
1554454955.9,286047000.7,N
1554454975.7,286046998.7,N
1554454995.6,286046996.5,N
1554455015.4,286046998.6,N
1554455035.3,286046999.3,N
1554455055.1,286046997.8,N
1554455075.8,286046997.2,N
1554455095.7,286046999.1,N
1554455115.5,286046994.9,Y
1554455135.4,286046997.4,P
1554455155.2,286046997.4,P
1554455175.0,286046997.6,P
1554455175.9,286046997.6,Y
1554455195.8,286047000.7,P
1554455215.6,286046999.8,N
1554455235.5,286047000.3,N
1554455255.3,286047002.1,N
1554455275.1,286047001.6,N
1554455295.9,286047003.8,N
1554455315.7,286047002.0,N
1554455335.5,286047000.3,N
1554455355.4,286046999.9,N
1554455375.2,286047000.2,N
1554455395.1,286047002.8,N
1554455396.0,286047002.8,N
1554455415.8,286047002.4,N
1554455435.6,286047001.5,N
1554455455.5,286047001.6,N
1554455475.3,286047003.6,N
1554455495.1,286047001.5,N
1554455515.9,286047001.4,N
1554455535.7,286047004.2,N
1554455555.6,286047003.3,N
1554455575.4,286047004.2,N
1554455595.2,286047004.3,N
1554455615.1,286046999.8,N
1554455616.0,286046999.8,N
1554455635.8,286047002.7,N
1554455655.6,286047002.3,N
1554455675.5,286047004.4,N
1554455695.3,286047001.5,N
1554455715.2,286047000.1,N
1554455735.9,286047002.6,N
1554455755.7,286047002.3,N
1554455775.6,286047002.3,N
1554455795.4,286047002.6,N
1554455815.2,286046999.8,N
1554455835.1,286047000.0,N
1554455836.0,286047000.0,N
1554455855.8,286047000.2,N
1554455875.7,286047000.2,N
1554455895.5,286047000.9,N
1554455915.3,286046998.5,N
1554455935.2,286047000.9,N
1554455955.9,286046999.0,N
1554455975.0,286046998.7,N
1554455975.9,286046998.7,N
1554455995.8,286047000.4,N
1554456015.6,286047002.0,N
1554456035.4,286047001.7,N
1554456055.3,286047004.0,N
1554456075.1,286047003.5,N
1554456095.9,286047003.1,N
1554456115.7,286047003.1,N
1554456135.5,286047003.7,N
1554456155.4,286047004.3,N
1554456175.2,286047003.1,N
1554456195.0,286047000.2,N
1554456195.9,286047000.2,N
1554456215.8,286047000.7,N
1554456235.6,286047000.3,N
1554456255.4,286046999.8,N
1554456275.3,286047000.1,N
1554456295.1,286047002.4,N
1554456315.9,286047002.0,N
1554456335.7,286047001.5,N
1554456355.5,286047003.0,N
1554456375.4,286047003.0,N
1554456395.2,286047003.2,N
1554456415.0,286047001.9,N
1554456416.0,286047001.9,N
1554456435.8,286047002.1,N
1554456455.6,286047004.0,N
1554456475.5,286047003.1,N
1554456495.3,286047004.3,N
1554456515.1,286047001.3,N
1554456535.9,286047003.3,N
1554456555.7,286047004.2,Y
1554456575.6,286047002.4,P
1554456595.4,286046999.9,N
1554456615.2,286047002.6,N
1554456635.1,286047000.0,N
1554456636.0,286047000.0,N
1554456655.8,286046999.5,N
1554456675.7,286046996.6,N
1554456695.5,286046998.7,N
1554456715.3,286047002.7,N
1554456735.2,286047002.2,N
1554456755.0,286046999.8,N
1554456755.9,286046999.8,N
1554456775.7,286047002.7,N
1554456795.6,286047000.5,N
1554456815.4,286047001.2,N
1554456835.3,286047001.1,N
1554456855.1,286046999.8,N
1554456875.8,286047000.0,N
1554456895.7,286047000.3,N
1554456915.5,286047001.0,N
1554456935.4,286047002.4,N
1554456955.2,286047001.9,N
1554456975.0,286047002.7,N
1554456975.9,286047002.7,N
1554456995.8,286047002.2,N
1554457015.6,286047002.2,N
1554457035.5,286047001.6,N
1554457055.3,286047002.5,N
1554457075.1,286047002.2,N
1554457095.9,286047001.7,N
1554457115.7,286047004.4,Y
1554457135.5,286047000.5,P
1554457155.4,286047000.4,N
1554457175.2,286047000.4,N
1554457195.1,286047000.9,N
1554457196.0,286047000.9,Y
1554457215.8,286046998.5,P
1554457235.6,286046999.0,N
1554457255.5,286046999.3,N
1554457275.3,286046998.6,N
1554457295.1,286046997.7,N
1554457315.9,286046997.6,N
1554457335.7,286046997.1,Y
1554457355.6,286046996.9,P
1554457375.4,286046999.5,N
1554457395.2,286046998.9,N
1554457415.1,286046996.6,Y
1554457416.0,286046996.6,P
1554457435.8,286047000.4,N
1554457455.7,286047002.7,N
1554457475.5,286047002.5,N
1554457495.3,286047002.7,N
1554457515.2,286047002.2,N
1554457535.9,286047000.3,N
1554457555.7,286047000.5,N
1554457575.6,286047002.8,N
1554457595.4,286047001.4,N
1554457615.3,286047000.1,N
1554457635.1,286047000.4,N
1554457655.8,286047001.2,N
1554457675.7,286047001.1,N
1554457695.5,286047002.4,N
1554457715.4,286047001.7,N
1554457735.2,286047001.8,N
1554457755.0,286047004.3,N
1554457755.9,286047004.3,N
1554457775.8,286047004.0,N
1554457795.6,286047001.7,N
1554457815.4,286047001.4,N
1554457835.3,286047000.1,N
1554457855.1,286046999.8,N
1554457875.9,286047000.4,N
1554457895.7,286046999.8,N
1554457915.5,286046999.9,N
1554457935.4,286047002.6,N
1554457955.2,286047004.4,N
1554457975.1,286047001.9,N
1554457976.0,286047001.9,N
1554457995.8,286047002.5,N
1554458015.6,286046999.7,N
1554458035.5,286047000.2,N
1554458055.3,286047002.2,N
1554458075.1,286046998.2,N
1554458095.9,286046998.6,N
1554458115.7,286046998.1,N
1554458135.6,286047001.0,N
1554458155.4,286046999.7,N
1554458175.2,286047001.7,N
1554458195.1,286047000.0,N
1554458196.0,286047000.0,N
1554458215.8,286047000.5,N
1554458235.7,286047002.3,N
1554458255.5,286047000.9,N
1554458275.3,286047000.5,N
1554458295.2,286047000.1,N
1554458315.0,286047000.1,N
1554458315.9,286047000.1,N
1554458335.7,286047002.8,N
1554458355.6,286047002.5,N
1554458375.4,286046999.8,N
1554458395.3,286046999.7,N
